Location: Dackenheim
(49.5215°N, 8.1854°E)
Time: 21:52:23
(UTC+00:00)

Cosmos 2360 Rocket - Pass Details

Date: 19 May 2025
Orbit: 834 x 842 km, 71.0° (Epoch: 15 June)

Event Time Altitude Azimuth Distance (km) Brightness Sun altitude
Rises 23:09:12 0° 331° (NNW) 3,394 6.5 -20.4°
Reaches altitude 10° 23:11:39 10° 331° (NNW) 2,456 5.5 -20.4°
Maximum altitude 23:17:18 89° 65° (ENE) 842 2.1 -20.5°
Enters shadow 23:19:38 37° 152° (SSE) 1,270 2.7 -20.5°
